User: anonymous   Login
Location: Presov
(49.0000°N, 21.2500°E)
Time: 22:28:33
(UTC+02:00)
Language:

SR - Orbit

View from above orbital plane
View from above orbital plane
View from above satellite
View from above satellite

Ground track
Ground track

The orbit data is extracted from the following two-line orbital elements,

1 00046U 60007B   21107.57714322  .00000028  00000-0  28445-4 0  9992
2 00046  66.6895 304.7192 0217594 264.7225  92.9022 14.49387009183184
Epoch (UTC): 17 April 2021 13:51:05
Eccentricity: 0.0217594
inclination: 66.6895°
perigee height: 573 km
apogee height: 882 km
right ascension of ascending node: 304.7192°
argument of perigee: 264.7225°
revolutions per day: 14.49387009
mean anomaly at epoch: 92.9022°
orbit number at epoch: 18318

The dashed part of the orbit path shows where the satellite is in the earth's shadow,  

DLR